sat.trackr.live / text

‹ back to catalog

STARLINK-5187

NORAD 54065 · 2022-136Q

PAYLOAD ACTIVE UNKNOWN

§ Identity

Operator
Country
US
Launch date
2022-10-20
Launch site
AFETR
Launch vehicle
Mass (kg)
RCS (m²)

Purposes: comms

External: N2YO · Heavens-Above · Gunter

§ Orbital elements

Epoch: 2026-05-24T21:59:06.681120Z

Period
95.44 min
Inclination
53.2134°
Eccentricity
0.0001238
Mean motion
15.08849204 rev/d
Perigee alt
538.9 km
Apogee alt
540.6 km
Semi-major
6,917.9 km
B*
1.3873e-4
RAAN
1.7758°
Arg perigee
65.7318°
Mean anomaly
294.3803°
Rev number
19,835

§ Raw data

STARLINK-51871 54065U 22136Q   26144.91604955  .00001921  00000+0  13873-3 0  99972 54065  53.2134   1.7758 0001238  65.7318 294.3803 15.08849204198358

JSON: /api/v1/satellites/54065 · /tle

For live sub-satellite position, see the globe view (requires WebGL).

§ Visibility from observer

Set your observer location to see the next 7 days of passes ≥ 10°. The values pass through the URL so the page stays shareable.

No JS? Fill the form by hand. The geolocation button needs JavaScript.